Location: Babice
(50.3480°N, 22.9363°E)
Time: 12:38:16
(UTC+00:00)

CBERS-1 - Pass Details

Date: 14 July 2020
Orbit: 770 x 777 km, 98.6° (Epoch: 07 August)

Event Time Altitude Azimuth Distance (km) Brightness Sun altitude
Rises 00:50:27 0° 15° (NNE) 3,271 8.9 -12.0°
Reaches altitude 10° 00:52:47 10° 16° (NNE) 2,338 7.8 -11.8°
Maximum altitude 00:57:57 82° 104° (ESE) 790 4.1 -11.3°
Enters shadow 01:02:41 12° 193° (SSW) 2,162 5.8 -10.9°
